EA5BZ Weather Reports


time (UTC)temp
F
wind
direction
speed
knots
gust
knots
rain 1hr
in
rain 24hr
in
rain mn
in
humidity
%
barometer
mb
20260502204016 64 68 5.2 10.4 0.00 0.00 0.00 86 1017.9
20260502203516 64 68 3.5 11.3 0.00 0.00 0.00 86 1017.9
20260502203016 64 68 6.1 11.3 0.00 0.00 0.00 86 1018.1
20260502202536 64 68 5.2 11.3 0.00 0.00 0.00 87 1017.9
20260502202016 64 68 6.1 10.4 0.00 0.00 0.00 87 1017.9
20260502201516 64 45 4.3 10.4 0.00 0.00 0.00 87 1017.7
20260502201016 64 45 7.0 12.2 0.00 0.00 0.00 87 1017.8
20260502200516 64 45 4.3 9.6 0.00 0.00 0.00 87 1017.7
20260502200016 64 68 7.0 13.0 0.00 0.00 0.00 87 1017.6
20260502195516 64 68 4.3 11.3 0.00 0.00 0.00 87 1017.7
20260502195016 64 68 7.0 12.2 0.00 0.00 0.00 87 1017.5
20260502194516 64 68 6.1 11.3 0.00 0.00 0.00 87 1017.5
20260502194016 64 68 3.5 10.4 0.00 0.00 0.00 87 1017.4
20260502193536 64 68 5.2 10.4 0.00 0.00 0.00 87 1017.4
20260502193016 64 68 4.3 7.8 0.00 0.00 0.00 87 1017.5
20260502192516 64 90 4.3 11.3 0.00 0.00 0.00 87 1017.6
20260502192016 64 90 5.2 10.4 0.00 0.00 0.00 87 1017.7
20260502191516 64 68 7.8 12.2 0.00 0.00 0.00 87 1017.5
20260502191016 64 68 7.8 12.2 0.00 0.00 0.00 87 1017.4
20260502190516 64 68 3.5 7.8 0.00 0.00 0.00 87 1017.4
20260502190016 64 68 6.1 9.6 0.00 0.00 0.00 87 1017.4
20260502185536 64 68 5.2 11.3 0.00 0.00 0.00 86 1017.2
20260502185036 65 68 6.1 11.3 0.00 0.00 0.00 86 1017.3
20260502184516 65 68 6.1 12.2 0.00 0.00 0.00 85 1017.3
20260502184016 65 68 6.1 12.2 0.00 0.00 0.00 85 1017.3
20260502183516 65 45 6.1 12.2 0.00 0.00 0.00 85 1017.4
20260502183016 65 45 5.2 10.4 0.00 0.00 0.00 85 1017.5
20260502182516 65 90 7.0 13.0 0.00 0.00 0.00 85 1017.4
20260502182016 65 68 5.2 10.4 0.00 0.00 0.00 85 1017.5
20260502181516 65 45 7.0 12.2 0.00 0.00 0.00 85 1017.4
20260502181016 65 68 5.2 13.0 0.00 0.00 0.00 85 1017.7
20260502180516 65 68 3.5 9.6 0.00 0.00 0.00 84 1017.8
20260502170516 65 90 7.0 11.3 0.00 0.00 0.00 83 1018.0
20260502164016 66 68 7.0 11.3 0.00 0.00 0.00 82 1018.0
20260502163516 66 90 5.2 10.4 0.00 0.00 0.00 82 1018.0
20260502163016 66 68 9.6 12.2 0.00 0.00 0.00 81 1018.0
20260502162516 66 90 7.0 10.4 0.00 0.00 0.00 81 1018.4
20260502162036 66 90 6.1 11.3 0.00 0.00 0.00 82 1018.4
20260502161516 66 68 8.7 12.2 0.00 0.00 0.00 81 1018.3
20260502161016 67 68 7.0 10.4 0.00 0.00 0.00 81 1018.3
20260502160516 67 90 6.1 10.4 0.00 0.00 0.00 81 1018.6
20260502152056 67 90 9.6 13.0 0.00 0.00 0.00 80 1018.6
20260502151535 67 90 7.8 11.3 0.00 0.00 0.00 80 1018.8
20260502151016 67 90 7.0 10.4 0.00 0.00 0.00 80 1019.0
20260502150515 67 90 8.7 11.3 0.00 0.00 0.00 79 1019.0
20260502130515 68 68 11.3 15.6 0.00 0.00 0.00 78 1020.0
20260502123515 69 45 9.6 18.2 0.00 0.00 0.00 76 1020.1
20260502123015 69 68 7.8 12.2 0.00 0.00 0.00 77 1020.2
20260502122515 68 68 7.0 12.2 0.00 0.00 0.00 78 1020.5
20260502122015 68 90 7.0 13.0 0.00 0.00 0.00 78 1020.7
20260502121515 68 68 8.7 13.9 0.00 0.00 0.00 78 1020.7
20260502121015 68 90 9.6 13.0 0.00 0.00 0.00 78 1020.7
20260502120515 68 68 7.8 15.6 0.00 0.00 0.00 79 1020.7
20260502115515 67 68 10.4 16.5 0.00 0.00 0.00 79 1020.7
20260502115015 67 68 10.4 15.6 0.00 0.00 0.00 80 1020.7
20260502114515 67 90 9.6 14.8 0.00 0.00 0.00 81 1020.8
20260502114015 67 68 8.7 13.9 0.00 0.00 0.00 80 1020.8
20260502113515 67 68 8.7 14.8 0.00 0.00 0.00 81 1020.8
20260502113015 67 68 11.3 16.5 0.00 0.00 0.00 80 1020.7
20260502112515 68 68 9.6 14.8 0.00 0.00 0.00 79 1020.7
20260502112015 68 68 9.6 13.9 0.00 0.00 0.00 78 1020.8
20260502111515 68 68 8.7 13.0 0.00 0.00 0.00 78 1021.0
20260502111015 68 68 9.6 15.6 0.00 0.00 0.00 79 1021.0
20260502110515 68 68 8.7 13.9 0.00 0.00 0.00 78 1021.0
20260502110015 68 90 9.6 14.8 0.00 0.00 0.00 78 1021.0
20260502105515 67 90 11.3 14.8 0.00 0.00 0.00 78 1021.0
20260502105015 67 68 11.3 15.6 0.00 0.00 0.00 78 1021.0
20260502104517 67 68 10.4 15.6 0.00 0.00 0.00 79 1021.1
20260502104037 67 90 10.4 14.8 0.00 0.00 0.00 79 1021.1
20260502103517 67 68 10.4 14.8 0.00 0.00 0.00 79 1021.2
20260502103037 67 68 8.7 13.0 0.00 0.00 0.00 79 1021.2
20260502102517 67 68 10.4 13.9 0.00 0.00 0.00 79 1021.4
20260502102057 67 90 10.4 13.9 0.00 0.00 0.00 78 1021.5
20260502101517 68 90 9.6 13.9 0.00 0.00 0.00 78 1021.5
20260502101037 68 90 8.7 11.3 0.00 0.00 0.00 78 1021.5
20260502100517 67 90 7.8 13.9 0.00 0.00 0.00 78 1021.5
20260502091517 67 68 10.4 14.8 0.00 0.00 0.00 79 1021.9
20260502091017 67 68 7.8 13.0 0.00 0.00 0.00 80 1021.8
20260502090517 67 68 7.8 13.0 0.00 0.00 0.00 80 1021.6
20260502071517 65 68 4.3 8.7 0.00 0.00 0.00 81 1021.6
20260502071017 65 68 3.5 7.8 0.00 0.00 0.00 81 1021.7
20260502070517 65 45 3.5 7.8 0.00 0.00 0.00 80 1021.7
20260502070037 65 68 2.6 7.0 0.00 0.00 0.00 80 1021.7
20260502065537 65 68 3.5 8.7 0.00 0.00 0.00 80 1021.7
20260502065037 65 68 3.5 7.0 0.00 0.00 0.00 80 1021.7
20260502064517 65 68 4.3 7.8 0.00 0.00 0.00 80 1021.7
20260502064037 65 45 2.6 5.2 0.00 0.00 0.00 80 1021.6
20260502063517 65 45 1.7 5.2 0.00 0.00 0.00 81 1021.5
20260502063017 65 68 1.7 4.3 0.00 0.00 0.00 81 1021.5
20260502062517 65 45 1.7 3.5 0.00 0.00 0.00 82 1021.5
20260502062037 64 0.0 0.9 0.00 0.00 0.00 82 1021.6
20260502061517 64 23 0.9 2.6 0.00 0.00 0.00 82 1021.6
20260502061017 64 23 0.9 4.3 0.00 0.00 0.00 83 1021.6
20260502060517 64 23 0.9 4.3 0.00 0.00 0.00 83 1021.4
20260502060037 64 0.0 1.7 0.00 0.00 0.00 83 1021.4
20260502055517 64 0.0 0.0 0.00 0.00 0.00 84 1021.4
20260502055017 64 0.0 0.0 0.00 0.00 0.00 84 1021.4
20260502054517 64 0.0 0.0 0.00 0.00 0.00 85 1021.4
20260502054017 64 0.0 1.7 0.00 0.00 0.00 85 1021.4
20260502053516 64 0.0 0.0 0.00 0.00 0.00 86 1021.4
20260502053016 64 0.0 0.0 0.00 0.00 0.00 86 1021.4
20260502052536 64 0.0 0.0 0.00 0.00 0.00 86 1021.4
20260502052017 64 0.0 1.7 0.00 0.00 0.00 87 1021.4
20260502051516 64 0.0 0.0 0.00 0.00 0.00 87 1021.3
20260502051017 64 0.0 0.0 0.00 0.00 0.00 87 1021.3
20260502050516 64 0.0 1.7 0.00 0.00 0.00 87 1021.3
20260502050016 64 0.0 1.7 0.00 0.00 0.00 87 1021.3
20260502045516 64 0.0 0.9 0.00 0.00 0.00 87 1021.2
20260502045016 64 0.0 0.0 0.00 0.00 0.00 88 1021.2
20260502044517 64 0.0 0.0 0.00 0.00 0.00 88 1021.1
20260502044017 64 0.0 0.0 0.00 0.00 0.00 88 1021.2
20260502043536 64 0.0 0.0 0.00 0.00 0.00 88 1021.1
20260502043016 64 0.0 0.0 0.00 0.00 0.00 88 1021.0
20260502042517 64 0.0 0.0 0.00 0.00 0.00 88 1021.0
20260502042017 64 293 0.9 2.6 0.00 0.00 0.00 88 1021.1
20260502041556 63 293 1.7 2.6 0.00 0.00 0.00 88 1021.2
20260502041016 63 315 0.9 1.7 0.00 0.00 0.00 88 1021.3
20260502040536 63 315 0.9 1.7 0.00 0.00 0.00 88 1021.4
20260502040017 63 0.0 1.7 0.00 0.00 0.00 88 1021.4
20260502035517 63 0.0 1.7 0.00 0.00 0.00 88 1021.4
20260502035016 63 338 1.7 2.6 0.00 0.00 0.00 88 1021.4
20260502034517 63 338 0.9 2.6 0.00 0.00 0.00 88 1021.4
20260502034016 63 338 0.9 3.5 0.00 0.00 0.00 88 1021.5
20260502033516 63 0.0 2.6 0.00 0.00 0.00 88 1021.6
20260502033017 63 0 0.9 2.6 0.00 0.00 0.00 88 1021.7
20260502032536 63 0.0 2.6 0.00 0.00 0.00 88 1021.7
20260502032016 63 0.0 0.0 0.00 0.00 0.00 88 1021.6
20260502031517 63 270 1.7 2.6 0.00 0.00 0.00 88 1021.7
20260502031016 63 270 0.9 2.6 0.00 0.00 0.00 88 1021.6
20260502030517 63 0.0 1.7 0.00 0.00 0.00 88 1021.6
20260502030016 63 0.0 1.7 0.00 0.00 0.00 88 1021.7
20260502025516 63 270 1.7 2.6 0.00 0.00 0.00 88 1021.7
20260502025016 63 293 1.7 2.6 0.00 0.00 0.00 88 1021.7
20260502024536 63 0 0.9 1.7 0.00 0.00 0.00 88 1021.7
20260502024036 63 0.0 0.9 0.00 0.00 0.00 88 1021.5
20260502023516 63 0.0 0.9 0.00 0.00 0.00 88 1021.5
20260502023056 63 0.0 0.0 0.00 0.00 0.00 88 1021.5
20260502022516 63 0.0 0.0 0.00 0.00 0.00 88 1021.4
20260502022016 63 0.0 0.0 0.00 0.00 0.00 88 1021.4
20260502021516 63 0.0 0.0 0.00 0.00 0.00 88 1021.5
20260502021016 63 0.0 0.0 0.00 0.00 0.00 88 1021.7
20260502020516 63 0.0 0.0 0.00 0.00 0.00 88 1021.7
20260502020016 63 0.0 0.0 0.00 0.00 0.00 88 1021.7
20260502015516 63 0.0 0.9 0.00 0.00 0.00 88 1021.7
20260502015016 63 0.0 0.9 0.00 0.00 0.00 88 1021.6
20260502014516 63 0.0 1.7 0.00 0.00 0.00 88 1021.6
20260502014016 63 45 0.9 1.7 0.00 0.00 0.00 88 1021.7
20260502013516 63 0.0 1.7 0.00 0.00 0.00 88 1021.8
20260502013016 63 0.0 1.7 0.00 0.00 0.00 88 1021.9
20260502012516 63 0.0 1.7 0.00 0.00 0.00 88 1021.8
20260502012016 63 0.0 2.6 0.00 0.00 0.00 88 1021.9
20260502011516 63 0.0 0.0 0.00 0.00 0.00 88 1022.0
20260502011016 63 0.0 0.0 0.00 0.00 0.00 88 1022.1
20260502010516 63 0.0 0.0 0.00 0.00 0.00 88 1022.1
20260502010036 63 0.0 1.7 0.00 0.00 0.00 88 1022.1
20260502005516 63 0.0 0.0 0.00 0.00 0.00 88 1022.3
20260502005016 63 0.0 0.9 0.00 0.00 0.00 88 1022.4
20260502004516 63 0.0 0.0 0.00 0.00 0.00 88 1022.4
20260502004016 63 0.0 0.0 0.00 0.00 0.00 88 1022.5
20260502003516 63 0.0 0.0 0.00 0.00 0.00 88 1022.5
20260502003016 63 0.0 0.0 0.00 0.00 0.00 88 1022.6
20260502002516 63 0.0 0.0 0.00 0.00 0.00 88 1022.6
20260502002036 63 0.0 0.0 0.00 0.00 0.00 88 1022.7
20260502001516 64 0.0 0.0 0.00 0.00 0.00 88 1022.8
20260502001016 64 0.0 1.7 0.00 0.00 0.00 88 1022.9
20260502000536 64 0.0 0.0 0.00 0.00 0.00 88 1022.9
20260502000016 64 0.0 0.0 0.00 0.00 0.00 88 1023.0
20260501235516 63 0.0 0.0 0.00 0.00 0.00 88 1023.0
20260501235016 63 0.0 0.0 0.00 0.00 0.00 88 1023.0
20260501234516 63 0.0 0.0 0.00 0.00 0.00 88 1023.0
20260501234016 63 0.0 0.0 0.00 0.01 0.00 88 1023.1
20260501233516 63 0.0 0.0 0.00 0.01 0.00 89 1023.1
20260501233016 63 0.0 0.0 0.00 0.01 0.00 88 1023.2
20260501232516 63 0.0 0.0 0.00 0.01 0.00 88 1023.2
20260501232016 63 0.0 0.0 0.00 0.01 0.00 88 1023.2
20260501231516 63 0.0 0.0 0.00 0.01 0.00 88 1023.2
20260501231016 63 0.0 0.9 0.00 0.01 0.00 88 1023.1
20260501230516 63 0.0 0.0 0.00 0.01 0.00 88 1023.1
20260501230016 64 0.0 1.7 0.00 0.01 0.00 88 1023.0
20260501225516 64 68 0.9 2.6 0.00 0.01 0.00 88 1023.0
20260501225016 64 68 2.6 4.3 0.00 0.01 0.00 88 1023.0
20260501224516 64 90 1.7 3.5 0.00 0.01 0.00 88 1023.0
20260501224016 64 90 0.9 2.6 0.00 0.01 0.00 88 1023.2
20260501223516 64 90 1.7 6.1 0.00 0.01 0.00 88 1023.1
20260501223016 64 90 3.5 7.0 0.00 0.01 0.00 88 1023.1
20260501222516 64 68 3.5 7.8 0.00 0.01 0.00 87 1023.0
20260501222016 64 68 2.6 6.1 0.00 0.01 0.00 88 1023.0
20260501221516 64 68 3.5 7.8 0.00 0.01 0.00 87 1023.0
20260501221036 64 68 4.3 7.8 0.00 0.01 0.00 87 1023.0
20260501220516 64 68 7.0 9.6 0.00 0.01 0.00 87 1023.0
20260501220036 64 68 5.2 10.4 0.00 0.01 0.01 87 1023.1
20260501215517 64 90 4.3 8.7 0.00 0.01 0.01 87 1023.1
20260501215017 64 68 4.3 7.8 0.00 0.01 0.01 87 1023.2
20260501214517 64 68 3.5 7.0 0.00 0.01 0.01 87 1023.2
20260501214037 64 68 3.5 7.0 0.00 0.01 0.01 87 1023.2
20260501213517 65 68 4.3 7.0 0.00 0.01 0.01 87 1023.3
20260501213037 65 90 2.6 4.3 0.00 0.01 0.01 86 1023.4
20260501212517 65 90 3.5 7.8 0.00 0.01 0.01 86 1023.4
20260501212017 65 68 4.3 7.0 0.00 0.01 0.01 86 1023.5
20260501211537 65 90 4.3 7.8 0.00 0.01 0.01 86 1023.5
20260501211037 65 68 2.6 6.1 0.00 0.01 0.01 86 1023.4
20260501210517 65 90 4.3 7.8 0.00 0.01 0.01 86 1023.2
20260501210017 65 90 3.5 7.0 0.00 0.01 0.01 86 1023.2
20260501205516 65 68 4.3 8.7 0.00 0.01 0.01 86 1023.1
20260501205016 65 45 2.6 7.0 0.00 0.01 0.01 86 1023.1
20260501204517 65 0.0 1.7 0.00 0.01 0.01 86 1023.1